| time (UTC) | temp F | wind direction | speed MPH | gust MPH | rain 1hr in | rain 24hr in | rain mn in | humidity % | barometer mb |
| 20260504050510 | 47 | 0 | 0.0 | 1.0 | 0.00 | 0.00 | 0.00 | 84 | 1018.9 |
| 20260504045509 | 47 | 0 | 0.0 | 0.0 | 0.00 | 0.00 | 0.00 | 83 | 1018.9 |
| 20260504045012 | 47 | 0 | 0.0 | 1.0 | 0.00 | 0.00 | 0.00 | 83 | 1018.9 |
| 20260504044540 | 47 | 0 | 0.0 | 1.0 | 0.00 | 0.00 | 0.00 | 83 | 1018.8 |
| 20260504044011 | 47 | 0 | 0.0 | 1.0 | 0.00 | 0.00 | 0.00 | 83 | 1018.8 |
| 20260504043513 | 48 | 0 | 0.0 | 1.0 | 0.00 | 0.00 | 0.00 | 82 | 1018.9 |
| 20260504043032 | 48 | 0 | 0.0 | 1.0 | 0.00 | 0.00 | 0.00 | 81 | 1019.0 |
| 20260504042511 | 48 | 0 | 0.0 | 2.0 | 0.00 | 0.00 | 0.00 | 81 | 1019.1 |
| 20260504042013 | 48 | 0 | 0.0 | 2.0 | 0.00 | 0.00 | 0.00 | 80 | 1019.1 |
| 20260504041531 | 48 | 242 | 0.0 | 2.0 | 0.00 | 0.00 | 0.00 | 80 | 1019.1 |
| 20260504041008 | 49 | 0 | 0.0 | 1.0 | 0.00 | 0.00 | 0.00 | 79 | 1019.2 |
| 20260504040511 | 49 | 242 | 0.0 | 1.0 | 0.00 | 0.00 | 0.00 | 78 | 1019.1 |
| 20260504040030 | 49 | 0 | 0.0 | 0.0 | 0.00 | 0.00 | 0.00 | 77 | 1019.2 |
| 20260504035510 | 49 | 0 | 0.0 | 0.0 | 0.00 | 0.00 | 0.00 | 76 | 1019.2 |
| 20260504035013 | 50 | 0 | 0.0 | 0.0 | 0.00 | 0.00 | 0.00 | 76 | 1019.1 |
| 20260504034551 | 50 | 0 | 0.0 | 0.0 | 0.00 | 0.00 | 0.00 | 76 | 1019.1 |
| 20260504034010 | 50 | 0 | 0.0 | 0.0 | 0.00 | 0.00 | 0.00 | 75 | 1019.2 |
| 20260504033510 | 50 | 0 | 0.0 | 2.0 | 0.00 | 0.00 | 0.00 | 75 | 1019.1 |
| 20260504033029 | 50 | 0 | 0.0 | 2.0 | 0.00 | 0.00 | 0.00 | 75 | 1019.1 |
| 20260504032509 | 50 | 0 | 0.0 | 0.0 | 0.00 | 0.00 | 0.00 | 75 | 1018.9 |
| 20260504032014 | 51 | 0 | 0.0 | 1.0 | 0.00 | 0.00 | 0.00 | 74 | 1018.9 |
| 20260504031532 | 51 | 0 | 0.0 | 1.0 | 0.00 | 0.00 | 0.00 | 75 | 1018.9 |
| 20260504031011 | 51 | 243 | 0.0 | 1.0 | 0.00 | 0.00 | 0.00 | 74 | 1018.9 |
| 20260504030512 | 52 | 0 | 0.0 | 2.0 | 0.00 | 0.00 | 0.00 | 73 | 1019.0 |
| 20260504030042 | 52 | 0 | 0.0 | 2.0 | 0.00 | 0.00 | 0.00 | 72 | 1019.2 |
| 20260504025512 | 52 | 243 | 0.0 | 2.0 | 0.00 | 0.00 | 0.00 | 71 | 1019.2 |
| 20260504025010 | 52 | 242 | 0.0 | 2.0 | 0.00 | 0.00 | 0.00 | 70 | 1019.0 |
| 20260504024530 | 53 | 0 | 0.0 | 1.0 | 0.00 | 0.00 | 0.00 | 70 | 1019.1 |
| 20260504024014 | 53 | 0 | 0.0 | 1.0 | 0.00 | 0.00 | 0.00 | 70 | 1018.9 |
| 20260504023511 | 53 | 0 | 0.0 | 1.0 | 0.00 | 0.00 | 0.00 | 70 | 1018.7 |
| 20260504023033 | 53 | 0 | 0.0 | 0.0 | 0.00 | 0.00 | 0.00 | 69 | 1018.7 |
| 20260504022511 | 53 | 0 | 0.0 | 1.0 | 0.00 | 0.00 | 0.00 | 69 | 1018.5 |
| 20260504022014 | 54 | 0 | 0.0 | 2.0 | 0.00 | 0.00 | 0.00 | 69 | 1018.5 |
| 20260504021534 | 54 | 242 | 0.0 | 2.0 | 0.00 | 0.00 | 0.00 | 69 | 1018.5 |
| 20260504021012 | 54 | 0 | 0.0 | 2.0 | 0.00 | 0.00 | 0.00 | 69 | 1018.6 |
| 20260504020510 | 55 | 0 | 0.0 | 2.0 | 0.00 | 0.00 | 0.00 | 67 | 1018.5 |
| 20260504020031 | 55 | 0 | 0.0 | 2.0 | 0.00 | 0.00 | 0.00 | 66 | 1018.4 |
| 20260504015513 | 55 | 0 | 0.0 | 1.0 | 0.00 | 0.00 | 0.00 | 65 | 1018.4 |
| 20260504015014 | 56 | 0 | 0.0 | 0.0 | 0.00 | 0.00 | 0.00 | 64 | 1018.4 |
| 20260504014541 | 56 | 0 | 0.0 | 0.0 | 0.00 | 0.00 | 0.00 | 63 | 1018.4 |
| 20260504014013 | 56 | 0 | 0.0 | 0.0 | 0.00 | 0.00 | 0.00 | 62 | 1018.3 |
| 20260504013510 | 56 | 0 | 0.0 | 1.0 | 0.00 | 0.00 | 0.00 | 62 | 1018.2 |
| 20260504013033 | 57 | 0 | 0.0 | 1.0 | 0.00 | 0.00 | 0.00 | 62 | 1018.1 |
| 20260504012514 | 57 | 0 | 0.0 | 1.0 | 0.00 | 0.00 | 0.00 | 61 | 1018.1 |
| 20260504012011 | 57 | 0 | 0.0 | 1.0 | 0.00 | 0.00 | 0.00 | 61 | 1017.9 |
| 20260504011532 | 58 | 0 | 0.0 | 1.0 | 0.00 | 0.00 | 0.00 | 60 | 1018.0 |
| 20260504011013 | 58 | 0 | 0.0 | 1.0 | 0.00 | 0.00 | 0.00 | 59 | 1018.0 |
| 20260504010511 | 59 | 0 | 0.0 | 1.0 | 0.00 | 0.00 | 0.00 | 59 | 1018.0 |
| 20260504010030 | 59 | 0 | 0.0 | 0.0 | 0.00 | 0.00 | 0.00 | 57 | 1018.0 |
| 20260504005510 | 60 | 0 | 0.0 | 1.0 | 0.00 | 0.00 | 0.00 | 56 | 1017.9 |
| 20260504005015 | 60 | 0 | 0.0 | 1.0 | 0.00 | 0.00 | 0.00 | 56 | 1017.8 |
| 20260504004533 | 61 | 0 | 0.0 | 4.0 | 0.00 | 0.00 | 0.00 | 55 | 1017.7 |
| 20260504004012 | 62 | 0 | 1.0 | 4.0 | 0.00 | 0.00 | 0.00 | 53 | 1017.7 |
| 20260504003515 | 63 | 0 | 0.0 | 2.0 | 0.00 | 0.00 | 0.00 | 50 | 1017.7 |
| 20260504003036 | 63 | 0 | 0.0 | 2.0 | 0.00 | 0.00 | 0.00 | 48 | 1017.7 |
| 20260504002511 | 63 | 0 | 0.0 | 2.0 | 0.00 | 0.00 | 0.00 | 47 | 1017.7 |
| 20260504002012 | 64 | 0 | 0.0 | 4.0 | 0.00 | 0.00 | 0.00 | 47 | 1017.6 |
| 20260504001532 | 64 | 244 | 0.0 | 9.0 | 0.00 | 0.00 | 0.00 | 44 | 1017.7 |
| 20260504001012 | 64 | 246 | 3.0 | 9.0 | 0.00 | 0.00 | 0.00 | 41 | 1017.7 |
| 20260504000510 | 65 | 242 | 3.0 | 8.0 | 0.00 | 0.00 | 0.00 | 41 | 1017.8 |
| 20260504000030 | 65 | 257 | 3.0 | 8.0 | 0.00 | 0.00 | 0.00 | 40 | 1017.7 |
| 20260503235512 | 65 | 244 | 3.0 | 9.0 | 0.00 | 0.00 | 0.00 | 40 | 1017.7 |
| 20260503235013 | 66 | 242 | 4.0 | 9.0 | 0.00 | 0.00 | 0.00 | 39 | 1017.8 |
| 20260503234538 | 66 | 242 | 4.0 | 9.0 | 0.00 | 0.00 | 0.00 | 39 | 1017.9 |
| 20260503234011 | 67 | 258 | 3.0 | 6.0 | 0.00 | 0.00 | 0.00 | 40 | 1017.8 |
| 20260503233512 | 67 | 302 | 3.0 | 6.0 | 0.00 | 0.00 | 0.00 | 39 | 1017.8 |
| 20260503233033 | 67 | 257 | 2.0 | 6.0 | 0.00 | 0.00 | 0.00 | 40 | 1017.8 |
| 20260503232512 | 67 | 248 | 2.0 | 7.0 | 0.00 | 0.00 | 0.00 | 40 | 1017.9 |
| 20260503232014 | 67 | 261 | 3.0 | 7.0 | 0.00 | 0.00 | 0.00 | 40 | 1017.9 |
| 20260503231534 | 67 | 246 | 3.0 | 7.0 | 0.00 | 0.00 | 0.00 | 40 | 1017.9 |
| 20260503231014 | 67 | 254 | 3.0 | 5.0 | 0.00 | 0.00 | 0.00 | 40 | 1017.9 |
| 20260503230512 | 67 | 259 | 2.0 | 6.0 | 0.00 | 0.00 | 0.00 | 39 | 1017.9 |
| 20260503230038 | 67 | 256 | 3.0 | 6.0 | 0.00 | 0.00 | 0.00 | 38 | 1018.0 |
| 20260503225510 | 68 | 240 | 1.0 | 8.0 | 0.00 | 0.00 | 0.00 | 36 | 1018.0 |
| 20260503225014 | 68 | 274 | 2.0 | 8.0 | 0.00 | 0.00 | 0.00 | 37 | 1018.1 |
| 20260503224531 | 68 | 264 | 2.0 | 5.0 | 0.00 | 0.00 | 0.00 | 37 | 1018.0 |
| 20260503224011 | 68 | 220 | 0.0 | 4.0 | 0.00 | 0.00 | 0.00 | 35 | 1018.0 |
| 20260503223511 | 68 | 220 | 1.0 | 4.0 | 0.00 | 0.00 | 0.00 | 34 | 1018.1 |
| 20260503223030 | 68 | 221 | 0.0 | 3.0 | 0.00 | 0.00 | 0.00 | 37 | 1018.1 |
| 20260503222510 | 68 | 219 | 0.0 | 5.0 | 0.00 | 0.00 | 0.00 | 36 | 1018.1 |
| 20260503222012 | 68 | 248 | 0.0 | 8.0 | 0.00 | 0.00 | 0.00 | 35 | 1018.1 |
| 20260503221539 | 68 | 248 | 3.0 | 8.0 | 0.00 | 0.00 | 0.00 | 33 | 1018.1 |
| 20260503221009 | 68 | 284 | 4.0 | 8.0 | 0.00 | 0.00 | 0.00 | 34 | 1018.2 |
| 20260503220513 | 68 | 258 | 3.0 | 8.0 | 0.00 | 0.00 | 0.00 | 35 | 1018.2 |
| 20260503220030 | 68 | 260 | 1.0 | 5.0 | 0.00 | 0.00 | 0.00 | 33 | 1018.1 |
| 20260503215512 | 68 | 254 | 1.0 | 5.0 | 0.00 | 0.00 | 0.00 | 34 | 1018.1 |
| 20260503215010 | 69 | 144 | 3.0 | 5.0 | 0.00 | 0.00 | 0.00 | 34 | 1018.2 |
| 20260503214533 | 69 | 219 | 1.0 | 5.0 | 0.00 | 0.00 | 0.00 | 36 | 1018.1 |
| 20260503214014 | 69 | 0 | 1.0 | 6.0 | 0.00 | 0.00 | 0.00 | 35 | 1018.0 |
| 20260503213511 | 69 | 168 | 2.0 | 6.0 | 0.00 | 0.00 | 0.00 | 35 | 1018.2 |
| 20260503213041 | 69 | 150 | 2.0 | 7.0 | 0.00 | 0.00 | 0.00 | 35 | 1018.3 |
| 20260503212510 | 70 | 173 | 2.0 | 7.0 | 0.00 | 0.00 | 0.00 | 35 | 1018.4 |
| 20260503212013 | 70 | 146 | 1.0 | 9.0 | 0.00 | 0.00 | 0.00 | 40 | 1018.4 |
| 20260503211531 | 71 | 331 | 2.0 | 9.0 | 0.00 | 0.00 | 0.00 | 41 | 1018.4 |
| 20260503211010 | 71 | 86 | 2.0 | 9.0 | 0.00 | 0.00 | 0.00 | 43 | 1018.6 |
| 20260503210517 | 72 | 155 | 3.0 | 9.0 | 0.00 | 0.00 | 0.00 | 41 | 1018.6 |
| 20260503210031 | 72 | 109 | 2.0 | 8.0 | 0.00 | 0.00 | 0.00 | 41 | 1018.6 |
| 20260503205507 | 72 | 144 | 3.0 | 8.0 | 0.00 | 0.00 | 0.00 | 35 | 1018.6 |
| 20260503205011 | 72 | 137 | 2.0 | 7.0 | 0.00 | 0.00 | 0.00 | 39 | 1018.7 |
| 20260503204544 | 72 | 161 | 3.0 | 7.0 | 0.00 | 0.00 | 0.00 | 39 | 1018.7 |
| 20260503204012 | 72 | 183 | 1.0 | 5.0 | 0.00 | 0.00 | 0.00 | 40 | 1018.8 |
| 20260503203511 | 72 | 201 | 1.0 | 6.0 | 0.00 | 0.00 | 0.00 | 42 | 1018.9 |
| 20260503203031 | 71 | 147 | 2.0 | 7.0 | 0.00 | 0.00 | 0.00 | 42 | 1019.0 |
| 20260503202511 | 71 | 0 | 1.0 | 8.0 | 0.00 | 0.00 | 0.00 | 41 | 1019.1 |
| 20260503202015 | 71 | 80 | 2.0 | 8.0 | 0.00 | 0.00 | 0.00 | 42 | 1019.1 |
| 20260503201530 | 71 | 178 | 2.0 | 8.0 | 0.00 | 0.00 | 0.00 | 42 | 1019.2 |
| 20260503201010 | 70 | 61 | 2.0 | 9.0 | 0.00 | 0.00 | 0.00 | 43 | 1019.3 |
| 20260503200512 | 70 | 146 | 4.0 | 9.0 | 0.00 | 0.00 | 0.00 | 41 | 1019.4 |
| 20260503200034 | 70 | 136 | 3.0 | 9.0 | 0.00 | 0.00 | 0.00 | 41 | 1019.5 |
| 20260503195510 | 70 | 125 | 2.0 | 9.0 | 0.00 | 0.00 | 0.00 | 42 | 1019.7 |
| 20260503195013 | 70 | 150 | 4.0 | 9.0 | 0.00 | 0.00 | 0.00 | 41 | 1019.8 |
| 20260503194529 | 71 | 150 | 3.0 | 11.0 | 0.00 | 0.00 | 0.00 | 40 | 1019.9 |
| 20260503194013 | 70 | 99 | 4.0 | 11.0 | 0.00 | 0.00 | 0.00 | 40 | 1019.9 |
| 20260503193510 | 70 | 115 | 3.0 | 10.0 | 0.00 | 0.00 | 0.00 | 43 | 1020.0 |
| 20260503193042 | 70 | 94 | 4.0 | 10.0 | 0.00 | 0.00 | 0.00 | 43 | 1020.1 |
| 20260503192512 | 70 | 125 | 4.0 | 12.0 | 0.00 | 0.00 | 0.00 | 42 | 1020.2 |
| 20260503192015 | 70 | 104 | 2.0 | 12.0 | 0.00 | 0.00 | 0.00 | 43 | 1020.3 |
| 20260503191530 | 70 | 104 | 6.0 | 12.0 | 0.00 | 0.00 | 0.00 | 39 | 1020.4 |
| 20260503191013 | 71 | 142 | 2.0 | 9.0 | 0.00 | 0.00 | 0.00 | 41 | 1020.4 |
| 20260503190514 | 70 | 188 | 1.0 | 9.0 | 0.00 | 0.00 | 0.00 | 45 | 1020.5 |
| 20260503190034 | 69 | 253 | 3.0 | 9.0 | 0.00 | 0.00 | 0.00 | 44 | 1020.5 |
| 20260503185513 | 69 | 109 | 4.0 | 9.0 | 0.00 | 0.00 | 0.00 | 45 | 1020.7 |
| 20260503185012 | 69 | 133 | 4.0 | 9.0 | 0.00 | 0.00 | 0.00 | 46 | 1020.7 |
| 20260503184537 | 69 | 197 | 4.0 | 14.0 | 0.00 | 0.00 | 0.00 | 44 | 1020.8 |
| 20260503184017 | 69 | 246 | 2.0 | 14.0 | 0.00 | 0.00 | 0.00 | 47 | 1020.8 |
| 20260503183517 | 69 | 156 | 6.0 | 14.0 | 0.00 | 0.00 | 0.00 | 43 | 1020.8 |
| 20260503183035 | 69 | 352 | 5.0 | 12.0 | 0.00 | 0.00 | 0.00 | 43 | 1020.9 |
| 20260503182512 | 69 | 153 | 2.0 | 12.0 | 0.00 | 0.00 | 0.00 | 44 | 1020.9 |
| 20260503182011 | 69 | 104 | 2.0 | 7.0 | 0.00 | 0.00 | 0.00 | 46 | 1020.9 |
| 20260503181529 | 68 | 150 | 2.0 | 7.0 | 0.00 | 0.00 | 0.00 | 43 | 1021.1 |
| 20260503181011 | 68 | 186 | 1.0 | 9.0 | 0.00 | 0.00 | 0.00 | 47 | 1021.2 |
| 20260503180513 | 67 | 72 | 0.0 | 10.0 | 0.00 | 0.00 | 0.00 | 46 | 1021.3 |
| 20260503180040 | 68 | 120 | 4.0 | 10.0 | 0.00 | 0.00 | 0.00 | 40 | 1021.4 |
| 20260503175512 | 68 | 103 | 1.0 | 6.0 | 0.00 | 0.00 | 0.00 | 42 | 1021.4 |
| 20260503175013 | 67 | 287 | 1.0 | 7.0 | 0.00 | 0.00 | 0.00 | 41 | 1021.4 |
| 20260503174533 | 67 | 63 | 1.0 | 10.0 | 0.00 | 0.00 | 0.00 | 46 | 1021.5 |
| 20260503174012 | 67 | 117 | 3.0 | 10.0 | 0.00 | 0.00 | 0.00 | 47 | 1021.6 |
| 20260503173513 | 67 | 192 | 2.0 | 9.0 | 0.00 | 0.00 | 0.00 | 45 | 1021.7 |
| 20260503173056 | 66 | 53 | 1.0 | 9.0 | 0.00 | 0.00 | 0.00 | 45 | 1021.8 |
| 20260503172513 | 66 | 201 | 3.0 | 9.0 | 0.00 | 0.00 | 0.00 | 42 | 1021.9 |
| 20260503172014 | 65 | 78 | 2.0 | 8.0 | 0.00 | 0.00 | 0.00 | 45 | 1021.9 |
| 20260503171531 | 65 | 86 | 3.0 | 6.0 | 0.00 | 0.00 | 0.00 | 46 | 1022.0 |
| 20260503171012 | 64 | 105 | 1.0 | 8.0 | 0.00 | 0.00 | 0.00 | 46 | 1022.0 |
| 20260503170514 | 65 | 147 | 3.0 | 9.0 | 0.00 | 0.00 | 0.00 | 46 | 1022.1 |
| 20260503151013 | 59 | 352 | 3.0 | 6.0 | 0.00 | 0.00 | 0.00 | 54 | 1023.2 |
| 20260503150510 | 59 | 119 | 2.0 | 6.0 | 0.00 | 0.00 | 0.00 | 52 | 1023.2 |
| 20260503131013 | 47 | 352 | 2.0 | 6.0 | 0.00 | 0.00 | 0.00 | 89 | 1023.3 |
| 20260503130511 | 46 | 352 | 2.0 | 6.0 | 0.00 | 0.00 | 0.00 | 90 | 1023.2 |
| 20260503110513 | 41 | 0 | 0.0 | 0.0 | 0.00 | 0.00 | 0.00 | 91 | 1022.3 |
| 20260503090510 | 44 | 0 | 0.0 | 2.0 | 0.00 | 0.00 | 0.00 | 87 | 1021.5 |
| 20260503081530 | 46 | 0 | 1.0 | 3.0 | 0.00 | 0.00 | 0.00 | 83 | 1021.0 |
| 20260503081012 | 46 | 0 | 0.0 | 2.0 | 0.00 | 0.00 | 0.00 | 83 | 1020.9 |
| 20260503080512 | 46 | 0 | 0.0 | 4.0 | 0.00 | 0.00 | 0.00 | 83 | 1020.9 |
| 20260503072510 | 47 | 309 | 2.0 | 7.0 | 0.00 | 0.00 | 0.00 | 84 | 1020.9 |
| 20260503072012 | 47 | 302 | 1.0 | 7.0 | 0.00 | 0.00 | 0.00 | 84 | 1020.7 |
| 20260503071534 | 47 | 306 | 1.0 | 7.0 | 0.00 | 0.00 | 0.00 | 84 | 1020.7 |
| 20260503071011 | 47 | 272 | 3.0 | 7.0 | 0.00 | 0.00 | 0.00 | 84 | 1020.6 |
| 20260503070512 | 47 | 288 | 1.0 | 9.0 | 0.00 | 0.00 | 0.00 | 84 | 1020.5 |